JZR175 OKKK-OSAP

Flight info

Callsign JZR175
Flight time N/A
Altitude 38000
Route RALKA G795 TASMI L602 GADSI M703 PASIP DCT TAN
Aircraft A20N/M-SDE2E3FGHIRWXY/LB1

Departure

Time 2026-05-08 18:41
Airport Kuwait International Airport (OKKK)

Arrival

Time N/A
Airport Aleppo International Airport (OSAP)
Time Latitude Longitude Altitude Speed Heading
2026-05-08 18:13 29.24015 47.97315 167 ft 0 kts 335°
2026-05-08 18:23 29.24009 47.97318 166 ft 1 kts 335°
2026-05-08 18:23 29.24002 47.97322 166 ft 1 kts 335°
2026-05-08 18:23 29.23995 47.97326 166 ft 1 kts 335°
2026-05-08 18:23 29.23988 47.97330 166 ft 1 kts 340°
2026-05-08 18:24 29.23980 47.97332 166 ft 1 kts 348°
2026-05-08 18:24 29.23973 47.97334 166 ft 1 kts 354°
2026-05-08 18:24 29.23965 47.97335 166 ft 1 kts
2026-05-08 18:24 29.23957 47.97335 166 ft 1 kts
2026-05-08 18:25 29.23949 47.97334 166 ft 1 kts 13°
2026-05-08 18:25 29.23946 47.97333 166 ft 0 kts 15°
2026-05-08 18:30 29.23947 47.97335 166 ft 0 kts 28°
2026-05-08 18:30 29.23945 47.97343 166 ft 2 kts 103°
2026-05-08 18:31 29.23888 47.97368 166 ft 16 kts 164°
2026-05-08 18:31 29.23761 47.97429 166 ft 18 kts 155°
2026-05-08 18:31 29.23654 47.97431 166 ft 14 kts 226°
2026-05-08 18:31 29.23607 47.97329 166 ft 15 kts 245°
2026-05-08 18:32 29.23561 47.97207 166 ft 17 kts 246°
2026-05-08 18:32 29.23509 47.97083 166 ft 15 kts 244°
2026-05-08 18:32 29.23471 47.96989 165 ft 14 kts 245°
2026-05-08 18:32 29.23425 47.96876 164 ft 17 kts 245°
2026-05-08 18:33 29.23395 47.96803 164 ft 0 kts 245°
2026-05-08 18:33 29.23395 47.96800 164 ft 1 kts 245°
2026-05-08 18:34 29.23378 47.96780 164 ft 7 kts 211°
2026-05-08 18:34 29.23314 47.96794 164 ft 12 kts 154°
2026-05-08 18:34 29.23227 47.96840 164 ft 16 kts 155°
2026-05-08 18:34 29.23114 47.96899 166 ft 19 kts 154°
2026-05-08 18:35 29.22990 47.96966 167 ft 21 kts 155°
2026-05-08 18:35 29.22850 47.97040 167 ft 23 kts 155°
2026-05-08 18:35 29.22703 47.97118 167 ft 23 kts 155°
2026-05-08 18:35 29.22552 47.97200 167 ft 25 kts 154°
2026-05-08 18:36 29.22406 47.97277 167 ft 23 kts 155°
2026-05-08 18:36 29.22267 47.97351 167 ft 22 kts 155°
2026-05-08 18:36 29.22123 47.97427 166 ft 24 kts 155°
2026-05-08 18:36 29.21966 47.97511 166 ft 26 kts 155°
2026-05-08 18:37 29.21805 47.97594 166 ft 25 kts 155°
2026-05-08 18:37 29.21665 47.97670 167 ft 22 kts 154°
2026-05-08 18:37 29.21521 47.97747 168 ft 24 kts 155°
2026-05-08 18:37 29.21370 47.97827 169 ft 23 kts 155°
2026-05-08 18:38 29.21287 47.97856 170 ft 9 kts 189°
2026-05-08 18:38 29.21243 47.97799 170 ft 11 kts 251°
2026-05-08 18:38 29.21258 47.97707 170 ft 13 kts 299°
2026-05-08 18:38 29.21310 47.97620 170 ft 14 kts 312°
2026-05-08 18:39 29.21380 47.97572 169 ft 0 kts 334°
2026-05-08 18:40 29.21428 47.97547 168 ft 30 kts 335°
2026-05-08 18:40 29.21837 47.97330 166 ft 97 kts 335°
2026-05-08 18:41 29.22612 47.96919 163 ft 147 kts 335°
2026-05-08 18:41 29.23561 47.96424 638 ft 146 kts 338°
2026-05-08 18:41 29.24485 47.95970 1148 ft 145 kts 338°
2026-05-08 18:41 29.25449 47.95489 1648 ft 155 kts 337°
2026-05-08 18:42 29.26447 47.94968 2142 ft 167 kts 336°
2026-05-08 18:42 29.27567 47.94371 2462 ft 188 kts 335°
2026-05-08 18:42 29.28819 47.93694 2817 ft 210 kts 335°
2026-05-08 18:42 29.30213 47.92938 3220 ft 233 kts 335°
2026-05-08 18:43 29.31751 47.92103 3615 ft 257 kts 335°
2026-05-08 18:43 29.33429 47.91280 4258 ft 267 kts 345°
2026-05-08 18:43 29.35297 47.91204 4996 ft 276 kts 11°
2026-05-08 18:43 29.37045 47.92136 5777 ft 284 kts 38°
2026-05-08 18:44 29.38299 47.93886 6574 ft 289 kts 59°
2026-05-08 18:44 29.39261 47.95937 7331 ft 293 kts 63°
2026-05-08 18:44 29.40178 47.98040 8139 ft 297 kts 63°
2026-05-08 18:44 29.41118 48.00168 8913 ft 301 kts 62°
2026-05-08 18:45 29.42087 48.02306 9677 ft 307 kts 62°
2026-05-08 18:45 29.43099 48.04493 10310 ft 314 kts 61°
2026-05-08 18:45 29.44169 48.06777 10575 ft 336 kts 61°
2026-05-08 18:45 29.45313 48.09213 10826 ft 356 kts 61°
2026-05-08 18:46 29.46500 48.11745 11419 ft 363 kts 61°
2026-05-08 18:46 29.47697 48.14300 12176 ft 365 kts 61°
2026-05-08 18:46 29.48905 48.16880 12886 ft 369 kts 60°
2026-05-08 18:46 29.50413 48.19255 13597 ft 370 kts 42°
2026-05-08 18:47 29.52516 48.20934 14221 ft 370 kts 22°
2026-05-08 18:47 29.54981 48.21721 14832 ft 369 kts
2026-05-08 18:47 29.57521 48.21531 15453 ft 366 kts 343°
2026-05-08 18:47 29.59853 48.20425 16105 ft 363 kts 327°
2026-05-08 18:48 29.62007 48.18893 16757 ft 365 kts 324°
2026-05-08 18:48 29.64143 48.17288 17414 ft 368 kts 324°
2026-05-08 18:48 29.66317 48.15712 18084 ft 371 kts 325°
2026-05-08 18:48 29.68534 48.14172 18641 ft 375 kts 326°
2026-05-08 18:49 29.70802 48.12644 19142 ft 380 kts 326°
2026-05-08 18:49 29.73107 48.11113 19657 ft 385 kts 326°
2026-05-08 18:49 29.75445 48.09568 20173 ft 389 kts 326°
2026-05-08 18:49 29.77805 48.08012 20700 ft 393 kts 325°
2026-05-08 18:50 29.80190 48.06438 21216 ft 397 kts 325°
2026-05-08 18:50 29.81786 48.05383 21557 ft 400 kts 325°
2026-05-08 18:50 29.85030 48.03236 22240 ft 405 kts 324°
2026-05-08 18:50 29.86648 48.02165 22559 ft 407 kts 324°
2026-05-08 18:51 29.89115 48.00530 23071 ft 412 kts 324°
2026-05-08 18:51 29.91605 47.98880 23622 ft 413 kts 323°
2026-05-08 18:51 29.94116 47.97214 23972 ft 419 kts 323°
2026-05-08 18:51 29.96651 47.95529 24323 ft 424 kts 323°
2026-05-08 18:52 29.99213 47.93814 24685 ft 427 kts 322°
2026-05-08 18:52 30.01646 47.91857 25034 ft 425 kts 314°
2026-05-08 18:52 30.03843 47.89586 25395 ft 423 kts 307°
2026-05-08 18:52 30.05800 47.87064 25765 ft 422 kts 303°
2026-05-08 18:53 30.07725 47.84486 26170 ft 426 kts 303°
2026-05-08 18:53 30.09675 47.81889 26485 ft 430 kts 303°
2026-05-08 18:53 30.11642 47.79271 26843 ft 434 kts 303°
2026-05-08 18:53 30.13623 47.76634 27212 ft 436 kts 302°
2026-05-08 18:54 30.15619 47.73970 27518 ft 440 kts 302°
2026-05-08 18:54 30.17605 47.71316 27823 ft 444 kts 302°
2026-05-08 18:54 30.19627 47.68613 28161 ft 446 kts 302°
2026-05-08 18:54 30.21661 47.65894 28523 ft 448 kts 301°
2026-05-08 18:55 30.25773 47.60384 29048 ft 456 kts 301°
2026-05-08 18:55 30.27847 47.57601 29348 ft 458 kts 301°
2026-05-08 18:55 30.29937 47.54795 29624 ft 461 kts 301°
2026-05-08 18:56 30.32037 47.51974 29887 ft 464 kts 301°
2026-05-08 18:56 30.34142 47.49144 30211 ft 465 kts 301°
2026-05-08 18:56 30.36255 47.46304 30545 ft 466 kts 301°
2026-05-08 18:56 30.38373 47.43456 30811 ft 468 kts 301°
2026-05-08 18:57 30.40497 47.40595 31098 ft 469 kts 301°
2026-05-08 18:57 30.42621 47.37732 31463 ft 468 kts 301°
2026-05-08 18:57 30.44745 47.34866 31809 ft 468 kts 301°
2026-05-08 18:57 30.46860 47.32013 32235 ft 465 kts 301°
2026-05-08 18:58 30.48956 47.29183 32696 ft 462 kts 301°
2026-05-08 18:58 30.51042 47.26364 33077 ft 460 kts 300°
2026-05-08 18:58 30.53120 47.23551 33424 ft 459 kts 300°
2026-05-08 18:58 30.55083 47.20678 33765 ft 449 kts 294°
2026-05-08 18:59 30.56741 47.17654 34090 ft 439 kts 288°
2026-05-08 18:59 30.58100 47.14523 34350 ft 430 kts 283°
2026-05-08 18:59 30.59212 47.11339 34632 ft 425 kts 281°
2026-05-08 18:59 30.60310 47.08157 34915 ft 424 kts 281°
2026-05-08 19:00 30.61410 47.04994 35195 ft 422 kts 281°
2026-05-08 19:00 30.62508 47.01842 35470 ft 420 kts 281°
2026-05-08 19:00 30.63585 46.98743 35740 ft 419 kts 281°
2026-05-08 19:00 30.64670 46.95613 36009 ft 417 kts 281°
2026-05-08 19:01 30.65749 46.92491 36240 ft 416 kts 280°
2026-05-08 19:01 30.66838 46.89337 36474 ft 415 kts 280°
2026-05-08 19:01 30.67894 46.86276 36717 ft 413 kts 280°
2026-05-08 19:01 30.68961 46.83183 36973 ft 412 kts 280°
2026-05-08 19:02 30.70022 46.80102 37207 ft 410 kts 280°
2026-05-08 19:02 30.71078 46.77033 37424 ft 409 kts 280°
2026-05-08 19:02 30.72131 46.73970 37631 ft 407 kts 279°
2026-05-08 19:02 30.73180 46.70916 37828 ft 406 kts 279°
2026-05-08 19:03 30.74223 46.67875 37993 ft 406 kts 279°
2026-05-08 19:03 30.76307 46.61792 37992 ft 404 kts 279°
2026-05-08 19:04 30.78383 46.55715 37991 ft 404 kts 279°
2026-05-08 19:04 30.80456 46.49635 37993 ft 405 kts 279°
2026-05-08 19:05 30.82532 46.43547 37993 ft 405 kts 279°
2026-05-08 19:05 30.84604 46.37458 37995 ft 405 kts 279°
2026-05-08 19:06 30.86674 46.31362 37988 ft 405 kts 279°
2026-05-08 19:06 30.88739 46.25266 38000 ft 405 kts 280°
2026-05-08 19:07 30.90808 46.19154 37998 ft 405 kts 280°
2026-05-08 19:07 30.92871 46.13048 37997 ft 405 kts 280°
2026-05-08 19:08 30.94933 46.06933 38003 ft 406 kts 280°
2026-05-08 19:08 30.96993 46.00810 38021 ft 406 kts 280°
2026-05-08 19:09 30.99053 45.94678 38013 ft 406 kts 280°
2026-05-08 19:09 31.01111 45.88545 38019 ft 406 kts 280°
2026-05-08 19:10 31.03162 45.82418 38012 ft 406 kts 280°
2026-05-08 19:10 31.05199 45.76323 38026 ft 406 kts 280°
2026-05-08 19:11 31.07246 45.70184 38013 ft 406 kts 280°
2026-05-08 19:11 31.09293 45.64038 38017 ft 406 kts 280°
2026-05-08 19:12 31.11333 45.57899 38020 ft 406 kts 280°
2026-05-08 19:12 31.13371 45.51755 38016 ft 406 kts 280°
2026-05-08 19:13 31.15407 45.45601 38019 ft 406 kts 280°
2026-05-08 19:13 31.17439 45.39454 38017 ft 406 kts 280°
2026-05-08 19:14 31.19471 45.33290 38012 ft 407 kts 280°
2026-05-08 19:14 31.21503 45.27118 38013 ft 407 kts 280°
2026-05-08 19:15 31.23533 45.20938 38004 ft 408 kts 280°
2026-05-08 19:15 31.25568 45.14731 37999 ft 409 kts 280°
2026-05-08 19:16 31.27589 45.08558 38001 ft 410 kts 280°
2026-05-08 19:16 31.29624 45.02329 38006 ft 411 kts 280°
2026-05-08 19:17 31.31663 44.96065 38022 ft 415 kts 281°
2026-05-08 19:17 31.33724 44.89723 38020 ft 418 kts 281°
2026-05-08 19:18 31.35787 44.83388 38026 ft 417 kts 281°
2026-05-08 19:18 31.37844 44.77044 38025 ft 417 kts 281°
2026-05-08 19:19 31.39898 44.70697 38027 ft 417 kts 281°
2026-05-08 19:19 31.41947 44.64350 38030 ft 417 kts 281°
2026-05-08 19:20 31.43995 44.57988 38025 ft 418 kts 282°
2026-05-08 19:20 31.46047 44.51613 38027 ft 418 kts 282°